This demonstration page uses our WeatherBlox Daily Observations layout. Learn more.

Left ArrowRight Arrow

Hourly Observations for November 30, 2019

Temp ( °F °C ) Dew Point ( °F °C ) Humidity (%) Winds ( mph kmh ) Pressure ( in mb ) Visibility ( mi km ) Precip ( " mm )
12:53 am 00:53 Mostly Cloudy with Fog 35 1.7 35 1.7 100 100 SE 12 19 29.60 1002 0 0 0.00 0.00
1:53 am 01:53 Mostly Cloudy with Fog 36 2.2 36 2.2 100 100 SE 14 22 29.55 1001 1 1 0.00 0.00
2:53 am 02:53 Mostly Cloudy with Fog 37 2.8 37 2.8 100 100 SE 15 24 29.51 999 1 1 0.00 0.00
3:41 am 03:41 Cloudy with Mist and Fog 39 3.9 39 3.9 100 100 SSE 15 24 29.48 998 2 3 0.00 0.00
3:49 am 03:49 Cloudy with Mist and Fog 39 4 39 4 100 100 SSE 15 24 29.48 998 4 6 0.00 0.00
3:53 am 03:53 Cloudy with Mist and Fog 39 3.9 39 3.9 100 100 SSE 14 22 29.46 998 5 8 0.00 0.00
4:49 am 04:49 Partly Cloudy 37 3 37 3 100 100 S 9 15 29.45 997 10 16 0.00 0.00
4:53 am 04:53 Mostly Clear 38 3.3 37 2.8 97 97 S 12 19 29.42 996 10 16 0.00 0.00
5:53 am 05:53 Clear 39 3.9 35 1.7 86 86 S 12 19 29.38 995 10 16 0.00 0.00
6:53 am 06:53 Clear 38 3.3 32 0 79 79 S 12 19 29.36 994 10 16 0.00 0.00
7:53 am 07:53 Sunny 38 3.3 30 -1.1 73 73 S 12 19 29.33 993 10 16 0.00 0.00
8:53 am 08:53 Sunny 39 3.9 29 -1.7 67 67 SSW 17 28 29.31 993 10 16 0.00 0.00
12:13 pm 12:13 Windy with Snow Likely 36 2.2 31 -0.6 82 82 W 28 44 29.32 993 8 13 0.00 0.00
12:53 pm 12:53 Cloudy 36 2.2 31 -0.6 82 82 W 22 35 29.29 992 9 14 0.00 0.00
1:05 pm 13:05 Cloudy 37 2.8 30 -1.1 76 76 W 28 44 29.33 993 10 16 0.00 0.00
1:53 pm 13:53 Windy with Snow Likely 36 2.2 29 -1.7 76 76 W 28 44 29.32 993 5 8 0.00 0.00
2:00 pm 14:00 Windy with Snow Likely 36 2.2 29 -1.7 76 76 W 25 41 29.36 994 7 11 0.00 0.00
2:53 pm 14:53 Cloudy 35 1.7 28 -2.2 76 76 W 26 43 29.34 994 10 16 0.00 0.00
3:51 pm 15:51 Cloudy with Light Wintry Mix 34 1 27 -3 75 75 W 28 44 29.43 996 5 8 0.00 0.00
3:53 pm 15:53 Cloudy with Light Wintry Mix 33 0.6 27 -2.8 78 78 W 25 41 29.38 995 5 8 0.00 0.00
4:23 pm 16:23 Windy with Snow Likely 32 0 27 -2.8 82 82 W 29 46 29.44 997 3 5 0.00 0.00
4:30 pm 16:30 Windy with Snow Likely 32 0 27 -3 80 80 W 35 56 29.44 997 3 4 0.00 0.00
4:37 pm 16:37 Windy with Snow Likely 32 0 27 -2.8 82 82 WNW 26 43 29.44 997 3 5 0.00 0.00
4:51 pm 16:51 Cloudy with Light Wintry Mix 32 0 27 -3 80 80 W 32 52 29.44 997 6 10 0.00 0.00
4:53 pm 16:53 Cloudy with Light Wintry Mix 32 0 26 -3.3 79 79 W 31 50 29.40 996 7 11 0.00 0.00
5:39 pm 17:39 Windy with Snow Likely 32 0 26 -3.3 79 79 WNW 35 56 29.45 997 8 13 0.00 0.00
5:53 pm 17:53 Cloudy with Light Wintry Mix 32 0 26 -3.3 79 79 WNW 31 50 29.41 996 8 13 0.00 0.00
6:53 pm 18:53 Windy with Snow Likely 31 -0.6 26 -3.3 82 82 WNW 33 54 29.42 996 4 6 0.00 0.00
7:53 pm 19:53 Cloudy 31 -0.6 25 -3.9 79 79 NW 30 48 29.47 998 10 16 0.00 0.00
8:53 pm 20:53 Cloudy 32 0 24 -4.4 73 73 NW 35 56 29.50 999 10 16 0.00 0.00
9:20 pm 21:20 Very Windy with Snow Likely 32 0 25 -4 75 75 NW 39 63 29.57 1001 9 14 0.00 0.00
9:46 pm 21:46 Cloudy 32 0 23 -5 69 69 NW 36 57 29.60 1002 10 16 0.00 0.00
9:53 pm 21:53 Cloudy 32 0 23 -5 69 69 NW 41 67 29.57 1001 10 16 0.00 0.00
10:53 pm 22:53 Cloudy 31 -0.6 23 -5 72 72 NW 35 56 29.62 1003 10 16 0.00 0.00
11:53 pm 23:53 Cloudy 31 -0.6 23 -5 72 72 NW 30 48 29.68 1005 10 16 0.00 0.00

Powered by AerisWeather